BAW63V EGCC-MDPP

Flight info

Callsign BAW63V
Flight time N/A
Altitude 36000
Route EKLAD Y53 WAL L10 PENIL M144 BAGSO DCT LIMRI/M082F360 DCT 51N020W 47N030W 42N040W 36N050W DCT SIFEN M596 WATRS/N0479F360 M596 POKEG POKEG2S
Aircraft B772/H-SDE2E3FGHIJ5LORVWXY/LB1D1

Departure

Time 2026-05-05 09:17
Airport Manchester Airport (EGCC)

Arrival

Time N/A
Airport Gregorio Luperon International Airport (MDPP)
Time Latitude Longitude Altitude Speed Heading
2026-05-05 08:50 53.36672 -2.28555 259 ft 0 kts 134°
2026-05-05 09:01 53.36689 -2.28583 259 ft 4 kts 142°
2026-05-05 09:01 53.36719 -2.28611 259 ft 4 kts 174°
2026-05-05 09:01 53.36738 -2.28605 259 ft 1 kts 223°
2026-05-05 09:08 53.36729 -2.28620 259 ft 6 kts 223°
2026-05-05 09:08 53.36681 -2.28697 259 ft 11 kts 225°
2026-05-05 09:08 53.36629 -2.28780 259 ft 9 kts 216°
2026-05-05 09:08 53.36579 -2.28753 259 ft 12 kts 141°
2026-05-05 09:09 53.36506 -2.28633 259 ft 15 kts 134°
2026-05-05 09:09 53.36437 -2.28518 259 ft 13 kts 139°
2026-05-05 09:09 53.36350 -2.28464 259 ft 13 kts 156°
2026-05-05 09:09 53.36288 -2.28374 259 ft 11 kts 135°
2026-05-05 09:10 53.36233 -2.28283 259 ft 11 kts 135°
2026-05-05 09:10 53.36179 -2.28192 259 ft 11 kts 135°
2026-05-05 09:10 53.36126 -2.28100 259 ft 11 kts 135°
2026-05-05 09:10 53.36069 -2.28014 259 ft 11 kts 139°
2026-05-05 09:11 53.36010 -2.27929 259 ft 11 kts 139°
2026-05-05 09:11 53.35952 -2.27857 259 ft 10 kts 158°
2026-05-05 09:11 53.35882 -2.27851 259 ft 10 kts 184°
2026-05-05 09:11 53.35802 -2.27865 254 ft 13 kts 186°
2026-05-05 09:12 53.35709 -2.27881 249 ft 12 kts 186°
2026-05-05 09:12 53.35642 -2.27896 246 ft 10 kts 196°
2026-05-05 09:12 53.35587 -2.27979 242 ft 11 kts 231°
2026-05-05 09:12 53.35525 -2.28092 238 ft 14 kts 218°
2026-05-05 09:13 53.35437 -2.28154 240 ft 14 kts 190°
2026-05-05 09:13 53.35342 -2.28183 238 ft 14 kts 196°
2026-05-05 09:13 53.35257 -2.28257 239 ft 14 kts 220°
2026-05-05 09:13 53.35192 -2.28379 236 ft 15 kts 230°
2026-05-05 09:14 53.35126 -2.28520 231 ft 16 kts 232°
2026-05-05 09:14 53.35058 -2.28662 234 ft 16 kts 230°
2026-05-05 09:14 53.34984 -2.28795 231 ft 16 kts 226°
2026-05-05 09:14 53.34908 -2.28926 229 ft 16 kts 226°
2026-05-05 09:15 53.34828 -2.29072 228 ft 18 kts 230°
2026-05-05 09:15 53.34751 -2.29229 226 ft 18 kts 231°
2026-05-05 09:15 53.34656 -2.29341 216 ft 13 kts 195°
2026-05-05 09:15 53.34576 -2.29321 219 ft 12 kts 151°
2026-05-05 09:16 53.34537 -2.29238 222 ft 8 kts 84°
2026-05-05 09:16 53.34572 -2.29156 222 ft 14 kts 52°
2026-05-05 09:16 53.34716 -2.28857 231 ft 63 kts 51°
2026-05-05 09:16 53.35156 -2.27951 238 ft 136 kts 51°
2026-05-05 09:17 53.35851 -2.26483 418 ft 179 kts 50°
2026-05-05 09:17 53.36638 -2.24790 1143 ft 187 kts 50°
2026-05-05 09:17 53.37443 -2.23116 2109 ft 187 kts 49°
2026-05-05 09:17 53.38375 -2.21435 2345 ft 208 kts 32°
2026-05-05 09:18 53.39785 -2.20779 2469 ft 221 kts 350°
2026-05-05 09:18 53.41156 -2.21941 2650 ft 230 kts 309°
2026-05-05 09:18 53.41880 -2.24326 2917 ft 232 kts 292°
2026-05-05 09:18 53.42560 -2.26870 3320 ft 247 kts 298°
2026-05-05 09:19 53.43359 -2.29461 3812 ft 255 kts 296°
2026-05-05 09:19 53.44153 -2.32176 4413 ft 261 kts 296°
2026-05-05 09:19 53.44963 -2.34922 5083 ft 264 kts 296°
2026-05-05 09:19 53.45792 -2.37684 5750 ft 266 kts 296°
2026-05-05 09:20 53.46627 -2.40474 6393 ft 267 kts 294°
2026-05-05 09:20 53.47012 -2.43505 6824 ft 271 kts 264°
2026-05-05 09:20 53.46667 -2.46620 7320 ft 273 kts 258°
2026-05-05 09:20 53.46309 -2.49768 7970 ft 274 kts 259°
2026-05-05 09:21 53.45964 -2.52925 8621 ft 276 kts 259°
2026-05-05 09:21 53.45617 -2.56100 9258 ft 278 kts 259°
2026-05-05 09:21 53.45267 -2.59303 9859 ft 280 kts 259°
2026-05-05 09:21 53.44911 -2.62526 10490 ft 281 kts 259°
2026-05-05 09:22 53.44554 -2.65758 11121 ft 282 kts 260°
2026-05-05 09:22 53.44194 -2.69020 11687 ft 285 kts 260°
2026-05-05 09:22 53.43830 -2.72296 12307 ft 285 kts 259°
2026-05-05 09:22 53.43462 -2.75593 12764 ft 292 kts 260°
2026-05-05 09:23 53.43083 -2.79005 12908 ft 310 kts 259°
2026-05-05 09:23 53.42674 -2.82666 13054 ft 329 kts 259°
2026-05-05 09:23 53.42240 -2.86536 13197 ft 347 kts 259°
2026-05-05 09:23 53.41782 -2.90627 13371 ft 364 kts 259°
2026-05-05 09:24 53.41304 -2.94863 13759 ft 374 kts 259°
2026-05-05 09:24 53.40818 -2.99190 14070 ft 379 kts 259°
2026-05-05 09:24 53.40324 -3.03541 14046 ft 379 kts 259°
2026-05-05 09:24 53.39836 -3.07897 14041 ft 376 kts 261°
2026-05-05 09:25 53.39771 -3.12238 14041 ft 380 kts 279°
2026-05-05 09:25 53.40550 -3.16474 14050 ft 381 kts 295°
2026-05-05 09:25 53.41967 -3.20221 14053 ft 379 kts 305°
2026-05-05 09:25 53.43538 -3.23789 14097 ft 383 kts 305°
2026-05-05 09:26 53.45125 -3.27438 14635 ft 387 kts 305°
2026-05-05 09:26 53.46682 -3.31045 15256 ft 388 kts 304°
2026-05-05 09:26 53.48265 -3.34745 15837 ft 391 kts 304°
2026-05-05 09:26 53.49854 -3.38476 16362 ft 394 kts 304°
2026-05-05 09:27 53.51452 -3.42251 16861 ft 397 kts 304°
2026-05-05 09:27 53.53054 -3.46050 17358 ft 400 kts 304°
2026-05-05 09:27 53.54668 -3.49882 17841 ft 403 kts 304°
2026-05-05 09:27 53.56292 -3.53740 18309 ft 405 kts 304°
2026-05-05 09:28 53.57929 -3.57632 18771 ft 408 kts 304°
2026-05-05 09:28 53.59564 -3.61569 19186 ft 409 kts 302°
2026-05-05 09:28 53.60877 -3.65769 19463 ft 413 kts 290°
2026-05-05 09:28 53.61719 -3.70480 19882 ft 415 kts 282°
2026-05-05 09:29 53.62081 -3.75251 20301 ft 417 kts 273°
2026-05-05 09:29 53.62229 -3.80125 20805 ft 415 kts 272°
2026-05-05 09:29 53.62403 -3.84969 21372 ft 414 kts 273°
2026-05-05 09:29 53.62601 -3.89836 21720 ft 418 kts 273°
2026-05-05 09:30 53.62807 -3.94737 22114 ft 419 kts 273°
2026-05-05 09:30 53.63008 -3.99623 22634 ft 418 kts 273°
2026-05-05 09:30 53.63200 -4.04516 23055 ft 419 kts 273°
2026-05-05 09:30 53.63391 -4.09431 23386 ft 422 kts 273°
2026-05-05 09:31 53.63579 -4.14393 23701 ft 425 kts 273°
2026-05-05 09:31 53.63764 -4.19326 24038 ft 428 kts 273°
2026-05-05 09:31 53.63952 -4.24343 24383 ft 430 kts 273°
2026-05-05 09:31 53.64139 -4.29399 24719 ft 431 kts 273°
2026-05-05 09:32 53.64323 -4.34472 25043 ft 434 kts 272°
2026-05-05 09:32 53.64503 -4.39566 25359 ft 436 kts 272°
2026-05-05 09:32 53.64682 -4.44678 25680 ft 438 kts 272°
2026-05-05 09:32 53.64860 -4.49810 26003 ft 440 kts 272°
2026-05-05 09:33 53.65037 -4.54959 26315 ft 442 kts 272°
2026-05-05 09:33 53.65212 -4.60102 26610 ft 444 kts 272°
2026-05-05 09:33 53.65388 -4.65313 26875 ft 446 kts 272°
2026-05-05 09:33 53.65564 -4.70540 27136 ft 448 kts 272°
2026-05-05 09:34 53.65737 -4.75814 27400 ft 450 kts 272°
2026-05-05 09:34 53.65908 -4.81095 27671 ft 452 kts 272°
2026-05-05 09:34 53.66078 -4.86408 27954 ft 453 kts 272°
2026-05-05 09:34 53.66254 -4.91719 28210 ft 455 kts 272°
2026-05-05 09:35 53.66432 -4.97055 28481 ft 456 kts 272°
2026-05-05 09:35 53.66783 -5.07805 28984 ft 460 kts 272°
2026-05-05 09:35 53.66954 -5.13220 29202 ft 461 kts 272°
2026-05-05 09:36 53.67117 -5.18559 29458 ft 462 kts 272°
2026-05-05 09:36 53.67276 -5.23977 29693 ft 463 kts 272°
2026-05-05 09:36 53.67431 -5.29413 29894 ft 464 kts 272°
2026-05-05 09:36 53.67585 -5.34872 30113 ft 465 kts 272°
2026-05-05 09:37 53.67738 -5.40324 30396 ft 463 kts 272°
2026-05-05 09:37 53.67833 -5.43921 30583 ft 463 kts 271°
2026-05-05 09:37 53.67772 -5.49348 30885 ft 461 kts 265°
2026-05-05 09:37 53.67413 -5.54725 31148 ft 460 kts 260°
2026-05-05 09:38 53.66742 -5.60003 31433 ft 459 kts 256°
2026-05-05 09:38 53.66012 -5.65251 31691 ft 458 kts 257°
2026-05-05 09:38 53.65304 -5.70417 31975 ft 457 kts 257°
2026-05-05 09:38 53.64594 -5.75637 32224 ft 457 kts 257°
2026-05-05 09:39 53.63887 -5.80873 32457 ft 456 kts 257°
2026-05-05 09:39 53.63186 -5.86090 32704 ft 456 kts 257°
2026-05-05 09:39 53.62485 -5.91297 32941 ft 455 kts 257°
2026-05-05 09:39 53.61785 -5.96489 33173 ft 455 kts 257°
2026-05-05 09:40 53.61079 -6.01688 33377 ft 455 kts 257°
2026-05-05 09:40 53.60373 -6.06871 33627 ft 454 kts 257°
2026-05-05 09:40 53.59664 -6.12060 33805 ft 454 kts 257°
2026-05-05 09:40 53.58950 -6.17262 33977 ft 454 kts 257°
2026-05-05 09:41 53.58237 -6.22451 34185 ft 454 kts 257°
2026-05-05 09:41 53.57524 -6.27621 34367 ft 454 kts 257°
2026-05-05 09:41 53.56804 -6.32817 34510 ft 456 kts 257°
2026-05-05 09:41 53.56079 -6.38013 34682 ft 456 kts 257°
2026-05-05 09:42 53.55364 -6.43140 34902 ft 454 kts 257°
2026-05-05 09:42 53.54639 -6.48317 35057 ft 454 kts 257°
2026-05-05 09:42 53.53178 -6.58705 35218 ft 456 kts 257°
2026-05-05 09:43 53.52442 -6.63901 35327 ft 457 kts 257°
2026-05-05 09:43 53.51704 -6.69100 35462 ft 457 kts 257°
2026-05-05 09:43 53.50229 -6.79452 35675 ft 457 kts 257°
2026-05-05 09:44 53.48731 -6.89881 35843 ft 459 kts 257°
2026-05-05 09:44 53.47977 -6.95110 35952 ft 460 kts 257°
2026-05-05 09:44 53.47220 -7.00327 36015 ft 460 kts 257°
2026-05-05 09:45 53.45697 -7.10775 36074 ft 461 kts 257°
2026-05-05 09:45 53.44167 -7.21215 36084 ft 460 kts 257°
2026-05-05 09:46 53.42641 -7.31552 36090 ft 459 kts 257°
2026-05-05 09:46 53.41103 -7.41928 36094 ft 458 kts 256°
2026-05-05 09:47 53.39552 -7.52309 36093 ft 458 kts 256°
2026-05-05 09:47 53.37988 -7.62682 36092 ft 458 kts 256°
2026-05-05 09:48 53.36426 -7.72985 36092 ft 458 kts 256°
2026-05-05 09:48 53.34848 -7.83340 36092 ft 457 kts 256°
2026-05-05 09:49 53.33265 -7.93672 36096 ft 457 kts 256°
2026-05-05 09:49 53.31673 -8.03983 36104 ft 457 kts 256°
2026-05-05 09:50 53.30080 -8.14222 36110 ft 457 kts 256°
2026-05-05 09:50 53.28468 -8.24523 36109 ft 458 kts 256°
2026-05-05 09:51 53.26848 -8.34826 36113 ft 458 kts 256°
2026-05-05 09:51 53.25223 -8.45115 36110 ft 458 kts 256°
2026-05-05 09:52 53.23584 -8.55395 36122 ft 458 kts 256°
2026-05-05 09:52 53.21943 -8.65634 36121 ft 459 kts 256°
2026-05-05 09:53 53.20283 -8.75919 36125 ft 459 kts 256°
2026-05-05 09:53 53.18611 -8.86231 36116 ft 460 kts 256°
2026-05-05 09:54 53.16940 -8.96469 36124 ft 460 kts 256°
2026-05-05 09:54 53.15247 -9.06789 36122 ft 461 kts 256°
2026-05-05 09:55 53.13544 -9.17094 36124 ft 461 kts 255°
2026-05-05 09:55 53.11829 -9.27389 36122 ft 461 kts 255°